McCutcheon Field, NC

10:16 PM EST on December 03, 2016 (GMT -0500)
New River Marine Corps Air Station

Weather History for KNCA - December, 2012

Change the Weather History Date:

Monday, December 10, 2012

  Actual Average Record
Temperature  
Mean Temperature 68 °F -  
Max Temperature 75 °F 58 °F 79 °F (2007)
Min Temperature 62 °F 38 °F 23 °F (2006)
Cooling Degree Days 4    
Growing Degree Days 18 (Base 50)    
Moisture  
Dew Point 61 °F    
Average Humidity 84    
Maximum Humidity 94    
Minimum Humidity 60    
Precipitation  
Precipitation 0.16 in - - ()
Sea Level Pressure  
Sea Level Pressure 29.88 in    
Wind  
Wind Speed 6 mph (South)    
Max Wind Speed 13 mph    
Max Gust Speed 20 mph    
Visibility 7 miles    
Events Rain    
Averages and records for this station are not official NWS values.
T = Trace of Precipitation, MM = Missing Value Source: NWS Daily Summary

Daily Weather History Graph

Daily Weather History Graph

Search for Another Location

Airport or City:

Trip Planner

Search our weather history database for the weather conditions in past years. The results will help you decide how hot, cold, wet, or windy it might be!

Date:

Astronomy

Dec. 10, 2012 Rise Set
Actual Time 7:06 AM EST 4:59 PM EST
Civil Twilight 6:38 AM EST 5:27 PM EST
Nautical Twilight 6:07 AM EST 5:58 PM EST
Astronomical Twilight 5:36 AM EST 6:29 PM EST
Moon 3:52 AM EST (12/10) 2:43 PM EST (12/10)
Length of Visible Light 10h 48m
Length of Day
9h 52m
Waning Crescent, 10% of the Moon is Illuminated
Dec 10
Waning Crescent
Dec 13
New
Dec 20
First Quarter
Dec 28
Full
Jan 4
Last Quarter

Hourly Weather History & Observations

Time (EST) Temp. Dew Point Humidity Pressure Visibility Wind Dir Wind Speed Gust Speed Precip Events Conditions
12:56 AM 64.0 °F 61.0 °F 90% 30.01 in 9.0 mi SSE 5.8 mph - 0.00 in Rain Light Rain
1:56 AM 66.0 °F 63.0 °F 90% 29.99 in 8.0 mi Calm Calm - 0.00 in   Overcast
2:19 AM 66.2 °F 64.4 °F 94% 29.98 in 2.0 mi SSE 10.4 mph - 0.10 in Rain Heavy Rain
2:23 AM 68.0 °F 64.4 °F 88% 29.98 in 1.8 mi South 8.1 mph - 0.11 in Rain Rain
2:25 AM 68.0 °F 64.4 °F 88% 29.98 in 2.0 mi South 8.1 mph - 0.12 in Rain Rain
2:28 AM 68.0 °F 64.4 °F 88% 29.98 in 3.0 mi South 6.9 mph - 0.12 in Rain Light Rain
2:54 AM 66.2 °F 62.6 °F 88% 29.97 in 10.0 mi South 10.4 mph - 0.12 in Rain Light Rain
2:56 AM 66.9 °F 63.0 °F 87% 29.98 in 10.0 mi South 8.1 mph - 0.12 in   Overcast
3:56 AM 64.9 °F 62.1 °F 90% 29.94 in 4.0 mi SE 4.6 mph - 0.04 in Rain Light Rain
4:32 AM 62.6 °F 60.8 °F 94% 29.91 in 8.0 mi East 3.5 mph - 0.00 in   Overcast
4:56 AM 64.0 °F 60.1 °F 87% 29.92 in 10.0 mi East 3.5 mph - 0.00 in   Overcast
5:19 AM 64.4 °F 62.6 °F 94% 29.89 in 6.0 mi East 4.6 mph - 0.00 in   Overcast
5:25 AM 64.4 °F 62.6 °F 94% 29.89 in 2.5 mi East 3.5 mph - 0.00 in   Overcast
5:29 AM 64.4 °F 60.8 °F 88% 29.89 in 1.8 mi East 4.6 mph - 0.00 in   Overcast
5:43 AM 64.4 °F 62.6 °F 94% 29.89 in 2.0 mi Calm Calm - 0.00 in   Overcast
5:52 AM 64.4 °F 60.8 °F 88% 29.88 in 1.5 mi East 3.5 mph - 0.00 in   Overcast
5:56 AM 64.0 °F 61.0 °F 90% 29.89 in 1.2 mi ESE 4.6 mph - 0.00 in   Overcast
6:00 AM - - N/A% - - North - - N/A   Unknown
6:06 AM 64.4 °F 62.6 °F 94% 29.89 in 3.0 mi Calm Calm - N/A   Overcast
6:31 AM 64.4 °F 62.6 °F 94% 29.88 in 2.5 mi Calm Calm - N/A   Overcast
6:40 AM 64.4 °F 62.6 °F 94% 29.87 in 4.0 mi SSE 3.5 mph - N/A   Overcast
6:56 AM 66.0 °F 63.0 °F 90% 29.89 in 9.0 mi Calm Calm - N/A   Overcast
7:56 AM 66.0 °F 63.0 °F 90% 29.89 in 5.0 mi SW 5.8 mph - N/A   Overcast
8:56 AM 66.9 °F 64.0 °F 90% 29.90 in 10.0 mi WSW 8.1 mph - N/A   Overcast
9:56 AM 68.0 °F 64.0 °F 87% 29.89 in 10.0 mi SW 10.4 mph - N/A   Overcast
10:52 AM 71.6 °F 64.4 °F 78% 29.87 in 10.0 mi SW 6.9 mph - N/A   Overcast
10:56 AM 71.1 °F 64.0 °F 78% 29.88 in 10.0 mi SW 8.1 mph - N/A   Overcast
11:56 AM 72.0 °F 63.0 °F 73% 29.85 in 10.0 mi SW 10.4 mph 18.4 mph N/A   Mostly Cloudy
12:00 PM 73.4 °F 62.6 °F 69% 29.84 in 10.0 mi WSW 10.4 mph 18.4 mph N/A   Scattered Clouds
12:56 PM 75.0 °F 60.1 °F 60% 29.82 in 10.0 mi SW 9.2 mph 16.1 mph N/A   Mostly Cloudy
1:56 PM 73.9 °F 62.1 °F 66% 29.81 in 10.0 mi SSW 9.2 mph - N/A   Clear
2:56 PM 73.0 °F 59.0 °F 61% 29.80 in 10.0 mi SSW 12.7 mph 19.6 mph N/A   Mostly Cloudy
3:56 PM 70.0 °F 59.0 °F 68% 29.80 in 10.0 mi SSW 9.2 mph - N/A   Mostly Cloudy
4:56 PM 66.9 °F 59.0 °F 76% 29.80 in 10.0 mi South 6.9 mph - N/A   Mostly Cloudy
5:56 PM 64.0 °F 57.9 °F 80% 29.81 in 10.0 mi SSW 5.8 mph - N/A   Mostly Cloudy
7:56 PM 62.1 °F 57.0 °F 84% 29.82 in 10.0 mi SSW 5.8 mph - N/A   Clear
8:14 PM 62.6 °F 57.2 °F 82% 29.80 in 10.0 mi SSW 5.8 mph - N/A   Scattered Clouds
8:56 PM 62.1 °F 55.0 °F 78% 29.81 in 10.0 mi SSW 5.8 mph - N/A   Scattered Clouds
9:56 PM 63.0 °F 53.1 °F 70% 29.81 in 10.0 mi SSW 8.1 mph - N/A   Scattered Clouds
10:56 PM 64.9 °F 54.0 °F 68% 29.82 in 10.0 mi SSW 9.2 mph - N/A   Scattered Clouds
11:56 PM 66.9 °F 60.1 °F 79% 29.80 in 10.0 mi SSW 10.4 mph 19.6 mph N/A   Partly Cloudy